Lid_Strength_Index
4 4 4 4 4 3 3 2 2 2 2 3 2 1 1 1 1 1 1 0 0 0 1 1 1 2 2 2 2 3 3 4 3 4 3 3 4 4 4 4 4 4 4
7 5 5 5 5 4 3 3 2 2 2 2 2 1 1 1 0 1 1 0 0 0 0 1 1 1 2 2 3 3 3 3 3 3 4 6 5 4 4 4 5 5 6
6 6 6 6 5 4 3 3 2 2 2 2 3 2 2 1 1 2 1 1 0 0 1 0 1 1 1 2 2 2 3 3 2 2 4 7 8 5 5 6 6 7 7
10 8 7 7 6 5 4 2 2 2 2 2 2 3 2 2 2 1 0 1 0 0 0 0 1 1 1 2 2 2 2 2 4 4 4 4 4 7 9 8 7 8 7
12 10 9 7 7 6 4 3 2 2 2 2 2 3 4 4 2 1 1 1 1 1 1 1 2 2 3 3 2 3 4 5 4 4 6 7 8 9 9 11 11 11 10
12 13 11 9 8 8 7 4 3 2 2 2 2 3 3 3 3 2 2 3 4 5 5 5 5 5 5 5 6 7 8 8 8 8 9 10 10 10 11 12 14 14 13
13 13 11 10 9 8 9 9 5 2 2 2 2 3 3 3 3 2 2 4 6 6 7 7 7 7 8 8 9 9 10 11 11 11 12 12 11 11 11 12 14 15 14
12 12 10 9 9 8 8 10 10 5 2 2 2 2 3 3 3 2 3 4 6 7 8 9 9 10 10 10 11 11 12 12 13 14 13 13 13 13 12 13 13 16 16
11 10 9 8 8 8 8 8 9 8 3 2 1 2 3 5 5 6 6 7 8 9 10 10 12 12 11 11 12 13 13 14 14 14 14 14 14 13 13 13 13 14 17
11 10 9 9 8 8 8 8 8 7 5 3 2 4 6 8 8 8 9 10 11 11 11 13 13 13 12 12 13 14 15 15 15 15 15 15 14 14 14 14 14 14 14
11 11 10 9 9 9 9 8 8 6 6 5 6 7 9 10 10 10 11 11 12 12 13 13 14 14 13 13 14 15 15 16 16 15 15 15 15 15 15 15 15 15 14
11 11 11 10 10 10 9 8 9 7 7 7 7 9 11 11 12 11 12 12 12 13 14 14 14 14 14 15 15 16 16 16 16 16 16 16 14 16 16 15 15 15 14
11 11 11 11 11 11 11 9 9 10 9 9 9 11 12 12 12 13 14 13 14 15 15 15 15 15 16 16 16 16 16 16 15 15 16 16 16 17 16 16 16 15 14
11 11 12 12 12 12 12 11 11 10 10 10 11 12 13 13 13 13 15 15 15 15 15 16 16 16 16 16 16 16 16 16 15 15 15 15 16 17 17 16 16 14 14
11 11 11 12 12 12 12 12 12 11 11 11 11 13 14 14 15 15 15 15 15 16 16 16 17 17 16 15 16 15 16 16 16 15 15 15 16 14 14 14 14 14 14
10 11 11 11 11 12 12 12 13 13 12 12 13 14 14 16 15 15 16 16 16 16 17 17 17 18 16 13 13 15 15 15 15 15 16 16 17 15 13 13 12 12 14
10 11 11 11 11 11 12 13 13 14 15 14 15 15 15 15 16 16 16 16 17 17 17 17 18 18 17 13 13 13 15 15 15 16 15 15 15 16 15 13 12 12 12
10 10 10 10 10 11 12 12 14 14 15 15 15 16 16 16 16 17 17 17 18 18 18 18 18 18 16 14 14 13 15 15 15 16 16 16 16 16 15 14 14 14 13
9 8 8 9 10 11 11 13 14 15 15 15 15 16 15 16 17 17 18 18 18 19 19 18 20 20 19 15 13 14 16 16 16 16 16 16 16 15 13 15 18 16 13
8 9 9 9 10 11 11 13 14 14 14 15 15 15 16 16 17 18 18 18 19 19 19 19 21 21 20 15 14 15 16 18 17 17 16 16 15 14 13 16 18 17 14
9 9 9 10 10 11 12 13 14 14 13 15 16 16 17 17 17 18 19 19 20 21 22 21 21 20 19 18 15 15 16 17 18 19 18 17 15 14 13 12 17 16 12
10 9 9 10 10 11 12 13 13 13 15 16 16 17 17 17 18 19 20 21 21 21 22 21 21 20 19 18 17 16 15 15 19 19 18 18 14 13 13 13 12 11 11
11 11 11 13 13 13 12 12 13 15 16 16 18 19 19 19 19 21 21 21 21 20 21 20 21 20 19 19 18 17 16 15 17 17 16 14 14 14 14 13 12 13 11
15 16 15 15 16 14 13 13 17 16 16 17 19 19 20 21 21 20 20 21 20 20 20 20 20 21 21 21 20 19 18 17 17 16 18 17 15 14 13 15 14 14 15
17 17 16 17 17 17 17 17 16 16 17 18 20 20 20 21 21 20 20 20 20 19 20 20 21 22 22 21 17 17 18 19 18 20 23 22 20 18 17 17 15 16 17
17 17 18 18 19 18 19 18 17 16 18 20 20 20 21 21 21 21 22 18 18 18 18 18 19 20 19 17 17 16 16 15 16 24 24 24 21 21 20 18 16 14 14